Location: St. Louis
(38.6270°N, 90.1994°W)
Time: 08:03:49
(UTC-06:00)

deb Explorer IX - Pass Details

Date: 05 December 2021
Orbit: 544 x 1082 km, 38.8° (Epoch: 19 January)

Event Time Altitude Azimuth Distance (km) Brightness Sun altitude
Rises 10:23:44 0° 254° (WSW) 3,111 ? 25.5°
Reaches altitude 10° 10:26:17 10° 252° (WSW) 2,107 ? 25.7°
Maximum altitude 10:31:06 76° 168° (SSE) 634 ? 26.1°
Drops below altitude 10° 10:35:22 10° 83° (E) 1,870 ? 26.4°
Sets 10:37:32 0° 81° (E) 2,732 ? 26.5°
